Marshfield, MA

12:49 PM EDT on September 18, 2019 (GMT -0400)
Marshfield

Weather History for KGHG - July, 2019

Change the Weather History Date:

Sunday, July 14, 2019

  Actual Average (KPYM) Record (KPYM)
Temperature  
Mean Temperature 81 °F -  
Max Temperature 91 °F 81 °F 96 °F (1952)
Min Temperature 71 °F 62 °F 46 °F (1999)
Cooling Degree Days 16    
Growing Degree Days 31 (Base 50)    
Moisture  
Dew Point 67 °F    
Average Humidity 67    
Maximum Humidity 94    
Minimum Humidity 40    
Precipitation  
Precipitation 0.00 in - - ()
Sea Level Pressure  
Sea Level Pressure 29.86 in    
Wind  
Wind Speed 5 mph (WSW)    
Max Wind Speed 8 mph    
Max Gust Speed 17 mph    
Visibility 10 miles    
Events      
Averages and records for this station are not official NWS values.
T = Trace of Precipitation, MM = Missing Value Source: NWS Daily Summary

Daily Weather History Graph

Daily Weather History Graph

Search for Another Location

Airport or City:

Astronomy

Jul. 14, 2019 Rise Set
Actual Time 5:19 AM EDT 8:17 PM EDT
Civil Twilight 4:45 AM EDT 8:51 PM EDT
Nautical Twilight 4:02 AM EDT 9:33 PM EDT
Astronomical Twilight 3:12 AM EDT 10:23 PM EDT
Moon 6:37 PM EDT (7/14) 3:18 AM EDT (7/14)
Length of Visible Light 16h 05m
Length of Day
14h 58m
Waxing Gibbous, 95% of the Moon is Illuminated
Jul 14
Waxing Gibbous
Jul 16
Full
Jul 24
Last Quarter
Jul 31
New
Aug 7
First Quarter

Hourly Weather History & Observations

Time (EDT) Temp. Heat Index Dew Point Humidity Pressure Visibility Wind Dir Wind Speed Gust Speed Precip Events Conditions
12:15 AM 73.4 °F - 68.0 °F 83% 29.88 in 10.0 mi WSW 5.8 mph - N/A   Clear
12:35 AM 73.4 °F - 68.0 °F 83% 29.87 in 10.0 mi SW 5.8 mph 12.7 mph N/A   Clear
12:55 AM 73.4 °F - 68.0 °F 83% 29.86 in 10.0 mi WSW 4.6 mph - N/A   Clear
1:15 AM 73.4 °F - 69.8 °F 88% 29.87 in 10.0 mi WSW 5.8 mph - N/A   Clear
1:35 AM 73.4 °F - 69.8 °F 88% 29.87 in 10.0 mi WSW 4.6 mph - N/A   Clear
1:55 AM 71.6 °F - 69.8 °F 94% 29.86 in 10.0 mi WSW 4.6 mph - N/A   Clear
2:15 AM 71.6 °F - 69.8 °F 94% 29.86 in 10.0 mi Variable 4.6 mph - N/A   Clear
2:35 AM 71.6 °F - 69.8 °F 94% 29.85 in 10.0 mi WSW 4.6 mph - N/A   Partly Cloudy
2:55 AM 71.6 °F - 69.8 °F 94% 29.84 in 10.0 mi SW 5.8 mph - N/A   Clear
3:15 AM 71.6 °F - 69.8 °F 94% 29.85 in 10.0 mi WSW 4.6 mph - N/A   Clear
3:35 AM 71.6 °F - 69.8 °F 94% 29.84 in 10.0 mi WSW 4.6 mph - N/A   Clear
3:55 AM 71.6 °F - 69.8 °F 94% 29.85 in 10.0 mi Variable 3.5 mph - N/A   Clear
4:15 AM 71.6 °F - 69.8 °F 94% 29.84 in 10.0 mi SW 5.8 mph - N/A   Clear
4:35 AM 71.6 °F - 69.8 °F 94% 29.84 in 10.0 mi WSW 6.9 mph - N/A   Clear
4:55 AM 71.6 °F - 69.8 °F 94% 29.85 in 10.0 mi Variable 5.8 mph - N/A   Clear
5:15 AM 71.6 °F - 69.8 °F 94% 29.85 in 10.0 mi West 4.6 mph 11.5 mph N/A   Clear
5:35 AM 71.6 °F - 69.8 °F 94% 29.86 in 10.0 mi Variable 5.8 mph - N/A   Clear
5:55 AM 71.6 °F - 69.8 °F 94% 29.86 in 10.0 mi WSW 5.8 mph 12.7 mph N/A   Partly Cloudy
6:15 AM 71.6 °F - 69.8 °F 94% 29.86 in 10.0 mi WSW 4.6 mph - N/A   Partly Cloudy
6:35 AM 73.4 °F - 69.8 °F 88% 29.86 in 10.0 mi Variable 6.9 mph - N/A   Partly Cloudy
6:55 AM 73.4 °F - 69.8 °F 88% 29.86 in 10.0 mi WSW 6.9 mph - N/A   Clear
7:15 AM 75.2 °F - 69.8 °F 83% 29.86 in 10.0 mi Variable 5.8 mph - N/A   Clear
7:35 AM 77.0 °F - 69.8 °F 78% 29.86 in 10.0 mi Variable 3.5 mph - N/A   Clear
7:55 AM 77.0 °F - 69.8 °F 78% 29.86 in 10.0 mi Variable 4.6 mph - N/A   Clear
8:15 AM 78.8 °F - 69.8 °F 74% 29.87 in 10.0 mi Variable 5.8 mph - N/A   Clear
8:35 AM 80.6 °F 83.9 °F 69.8 °F 70% 29.86 in 10.0 mi Variable 3.5 mph - N/A   Clear
8:55 AM 82.4 °F 86.3 °F 69.8 °F 66% 29.86 in 10.0 mi Variable 5.8 mph - N/A   Clear
9:15 AM 82.4 °F 86.3 °F 69.8 °F 66% 29.86 in 10.0 mi Variable 5.8 mph - N/A   Clear
9:35 AM 84.2 °F 88.4 °F 69.8 °F 62% 29.85 in 9.0 mi Variable 4.6 mph 11.5 mph N/A   Clear
9:55 AM 84.2 °F 88.4 °F 69.8 °F 62% 29.85 in 10.0 mi Variable 3.5 mph - N/A   Clear
10:15 AM 84.2 °F 87.3 °F 68.0 °F 58% 29.85 in 10.0 mi Variable 4.6 mph - N/A   Partly Cloudy
10:35 AM 86.0 °F 88.2 °F 66.2 °F 51% 29.85 in 10.0 mi Variable 5.8 mph - N/A   Clear
10:55 AM 86.0 °F 88.2 °F 66.2 °F 51% 29.85 in 10.0 mi Variable 4.6 mph - N/A   Scattered Clouds
11:15 AM 86.0 °F 89.4 °F 68.0 °F 55% 29.85 in 10.0 mi WSW 8.1 mph - N/A   Scattered Clouds
11:35 AM 87.8 °F 90.4 °F 66.2 °F 49% 29.85 in 10.0 mi Variable 5.8 mph - N/A   Partly Cloudy
11:55 AM 87.8 °F 90.4 °F 66.2 °F 49% 29.84 in 10.0 mi Variable 3.5 mph - N/A   Clear
12:15 PM 89.6 °F 93.4 °F 68.0 °F 49% 29.84 in 10.0 mi Variable 6.9 mph 13.8 mph N/A   Clear
12:35 PM 87.8 °F 91.4 °F 68.0 °F 52% 29.84 in 10.0 mi ENE 8.1 mph 13.8 mph N/A   Scattered Clouds
12:55 PM 84.2 °F 87.3 °F 68.0 °F 58% 29.84 in 10.0 mi NE 8.1 mph - N/A   Scattered Clouds
1:15 PM 86.0 °F 89.4 °F 68.0 °F 55% 29.84 in 10.0 mi ENE 5.8 mph - N/A   Scattered Clouds
1:35 PM 87.8 °F 89.4 °F 64.4 °F 46% 29.83 in 10.0 mi Variable 4.6 mph 12.7 mph N/A   Partly Cloudy
1:55 PM 89.6 °F 90.1 °F 62.6 °F 40% 29.83 in 10.0 mi Variable 5.8 mph 15.0 mph N/A   Clear
2:15 PM 89.6 °F 91.1 °F 64.4 °F 43% 29.82 in 10.0 mi West 8.1 mph - N/A   Clear
2:35 PM 91.4 °F 94.0 °F 66.2 °F 43% 29.82 in 10.0 mi Variable 6.9 mph - N/A   Clear
2:55 PM 89.6 °F 92.2 °F 66.2 °F 46% 29.82 in 10.0 mi Variable 6.9 mph 13.8 mph N/A   Clear
3:15 PM 89.6 °F 90.1 °F 62.6 °F 40% 29.82 in 10.0 mi Variable 6.9 mph 16.1 mph N/A   Partly Cloudy
3:35 PM 87.8 °F 89.4 °F 64.4 °F 46% 29.82 in 10.0 mi Variable 6.9 mph - N/A   Scattered Clouds
3:55 PM 86.0 °F 87.3 °F 64.4 °F 48% 29.82 in 10.0 mi ENE 3.5 mph - N/A   Scattered Clouds
4:15 PM 86.0 °F 87.3 °F 64.4 °F 48% 29.82 in 10.0 mi Calm Calm - N/A   Scattered Clouds
4:35 PM 87.8 °F 90.4 °F 66.2 °F 49% 29.82 in 10.0 mi Calm Calm - N/A   Partly Cloudy
4:55 PM 86.0 °F 88.2 °F 66.2 °F 51% 29.82 in 10.0 mi Calm Calm - N/A   Clear
5:15 PM 86.0 °F 89.4 °F 68.0 °F 55% 29.83 in 10.0 mi East 4.6 mph - N/A   Partly Cloudy
5:35 PM 86.0 °F 87.3 °F 64.4 °F 48% 29.82 in 10.0 mi ENE 3.5 mph - N/A   Partly Cloudy
5:55 PM 86.0 °F 88.2 °F 66.2 °F 51% 29.83 in 10.0 mi Calm Calm - N/A   Partly Cloudy
6:15 PM 86.0 °F 89.4 °F 68.0 °F 55% 29.83 in 10.0 mi Calm Calm - N/A   Partly Cloudy
6:35 PM 86.0 °F 87.3 °F 64.4 °F 48% 29.84 in 10.0 mi Variable 5.8 mph 12.7 mph N/A   Clear
6:55 PM 86.0 °F 87.3 °F 64.4 °F 48% 29.84 in 10.0 mi Calm Calm - N/A   Clear
7:15 PM 84.2 °F 86.6 °F 66.2 °F 55% 29.85 in 10.0 mi Calm Calm - N/A   Partly Cloudy
7:35 PM 84.2 °F 86.6 °F 66.2 °F 55% 29.85 in 10.0 mi Calm Calm - N/A   Clear
7:55 PM 82.4 °F 84.6 °F 66.2 °F 58% 29.86 in 10.0 mi Calm Calm - N/A   Clear
8:15 PM 78.8 °F - 68.0 °F 69% 29.86 in 10.0 mi Calm Calm - N/A   Clear
8:35 PM 78.8 °F - 68.0 °F 69% 29.87 in 10.0 mi Calm Calm - N/A   Clear
8:55 PM 77.0 °F - 68.0 °F 74% 29.88 in 10.0 mi Calm Calm - N/A   Clear
9:15 PM 75.2 °F - 68.0 °F 78% 29.89 in 10.0 mi Calm Calm - N/A   Clear
9:35 PM 78.8 °F - 64.4 °F 61% 29.90 in 10.0 mi NW 5.8 mph 11.5 mph N/A   Clear
9:55 PM 78.8 °F - 64.4 °F 61% 29.91 in 10.0 mi Variable 3.5 mph - N/A   Partly Cloudy
10:15 PM 78.8 °F - 64.4 °F 61% 29.91 in 10.0 mi Variable 5.8 mph - N/A   Partly Cloudy
10:35 PM 78.8 °F - 62.6 °F 57% 29.92 in 10.0 mi Variable 4.6 mph - N/A   Clear
10:55 PM 78.8 °F - 62.6 °F 57% 29.92 in 10.0 mi Variable 5.8 mph 11.5 mph N/A   Clear
11:15 PM 77.0 °F - 60.8 °F 57% 29.93 in 10.0 mi NNW 6.9 mph 17.3 mph N/A   Clear
11:35 PM 77.0 °F - 59.0 °F 54% 29.93 in 10.0 mi Variable 5.8 mph 13.8 mph N/A   Clear
11:55 PM 77.0 °F - 59.0 °F 54% 29.94 in 10.0 mi Variable 6.9 mph 15.0 mph N/A   Clear